FW6687 Weather Reports


time (UTC)temp
F
wind
direction
speed
knots
gust
knots
rain 1hr
in
rain 24hr
in
rain mn
in
humidity
%
barometer
mb
20260508144545 72 119 3.5 9.6 0.00 0.18 0.03 57 1011.7
20260508143028 71 146 4.3 7.8 0.00 0.18 0.03 57 1011.8
20260508141530 71 110 2.6 9.6 0.00 0.18 0.03 58 1012.1
20260508140029 72 72 4.3 7.0 0.00 0.18 0.03 57 1012.1
20260508134537 71 60 2.6 6.1 0.00 0.18 0.03 56 1012.3
20260508133036 71 117 2.6 7.0 0.00 0.18 0.03 58 1012.2
20260508131528 71 52 0.9 5.2 0.00 0.18 0.03 55 1012.7
20260508130028 71 126 1.7 4.3 0.00 0.18 0.03 57 1012.9
20260508124533 70 101 0.9 4.3 0.00 0.18 0.03 56 1012.8
20260508123028 71 124 0.9 2.6 0.00 0.18 0.03 58 1013.0
20260508121535 70 50 0.9 2.6 0.00 0.18 0.03 58 1013.2
20260508120026 68 0 0.0 4.3 0.00 0.18 0.03 64 1013.3
20260508114530 68 145 0.9 3.5 0.00 0.18 0.03 65 1013.4
20260508113028 65 300 1.7 4.3 0.00 0.18 0.03 70 1013.8
20260508111533 63 308 1.7 6.1 0.00 0.18 0.03 76 1014.1
20260508110044 62 283 3.5 6.1 0.00 0.18 0.03 79 1014.4
20260508104527 61 273 3.5 6.1 0.00 0.18 0.03 83 1014.6
20260508103028 60 255 3.5 7.0 0.01 0.18 0.03 84 1014.7
20260508101530 60 256 3.5 7.0 0.03 0.18 0.03 86 1014.8
20260508100030 60 300 3.5 6.1 0.03 0.18 0.03 85 1014.6
20260508094529 59 0 0.0 1.7 0.03 0.18 0.03 86 1014.2
20260508093029 59 311 2.6 6.1 0.02 0.17 0.02 85 1014.2
20260508091529 59 305 2.6 5.2 0.00 0.14 0.00 86 1014.9
20260508090029 58 0 0.0 0.9 0.00 0.14 0.00 86 1014.5
20260508084528 58 6 0.9 2.6 0.00 0.14 0.00 87 1014.0
20260508083030 58 108 0.0 3.5 0.00 0.14 0.00 87 1013.9
20260508081528 58 0 0.0 3.5 0.00 0.14 0.00 87 1014.0
20260508080028 59 0 0.0 0.9 0.00 0.14 0.00 86 1013.5
20260508074539 58 0 0.0 0.9 0.00 0.14 0.00 87 1013.5
20260508073030 58 104 0.0 1.7 0.00 0.14 0.00 86 1013.4
20260508071535 59 0 0.0 0.0 0.00 0.14 0.00 84 1013.2
20260508070029 58 0 0.0 0.0 0.00 0.14 0.00 86 1013.2
20260508064534 57 0 0.0 0.0 0.00 0.14 0.00 88 1013.0
20260508063030 0 0.0 0.0 0.00 0.14 0.00 1013.0
20260508061528 0 0.0 0.0 0.00 0.14 0.00 1012.8
20260508060032 0 0.0 0.0 0.00 0.14 0.00 1012.5
20260508054529 0 0.0 0.0 0.00 0.14 0.00 1012.2
20260508053044 0 0.0 0.0 0.00 0.14 0.00 1012.2
20260508051529 0 0.0 0.0 0.00 0.14 0.00 1012.2
20260508050030 0 0.0 0.0 0.00 0.14 0.00 1011.9
20260508044530 0 0.0 0.0 0.00 0.14 0.00 1011.9
20260508043027 0 0.0 0.0 0.00 0.14 0.00 1011.8
20260508041552 0 0.0 0.0 0.00 0.14 0.00 1012.0
20260508040028 0 0.0 0.0 0.00 0.14 0.00 1012.0
20260508034533 0 0.0 0.0 0.00 0.14 0.00 1011.5
20260508033030 0 0.0 0.0 0.00 0.14 0.00 1011.7
20260508031535 0 0.0 0.0 0.00 0.14 0.00 1011.7
20260508030034 0 0.0 0.0 0.00 0.14 0.00 1012.0
20260508024531 0 0.0 0.0 0.00 0.14 0.00 1012.1
20260508023033 0 0.0 0.0 0.00 0.14 0.00 1012.1
20260508021530 0 0.0 0.0 0.00 0.14 0.00 1012.3
20260508020039 0 0.0 0.0 0.00 0.14 0.00 1012.3
20260508014529 0 0.0 0.0 0.00 0.14 0.00 1012.4
20260508013029 0 0.0 0.0 0.00 0.14 0.00 1012.5
20260508011529 0 0.0 0.0 0.00 0.14 0.00 1012.6
20260508010028 0 0.0 0.0 0.00 0.14 0.00 1012.9
20260508004533 0 0.0 0.0 0.00 0.14 0.00 1013.1
20260508003035 0 0.0 0.0 0.00 0.14 0.00 1013.5
20260508001528 0 0.0 0.0 0.00 0.14 0.00 1013.5
20260508000032 0 0.0 0.0 0.00 0.14 0.00 1013.6
20260507234527 0 0.0 0.0 0.00 0.14 0.00 1013.7
20260507233050 0 0.0 0.0 0.00 0.14 0.00 1013.7
20260507231535 0 0.0 0.0 0.00 0.14 0.00 1013.8
20260507230028 0 0.0 0.0 0.00 0.14 0.00 1013.9
20260507224531 0 0.0 0.0 0.00 0.14 0.00 1013.8
20260507223029 0 0.0 0.0 0.00 0.14 0.00 1014.0
20260507221534 58 2.6 4.3 0.00 0.14 0.00 90 1013.8
20260507220031 57 274 0.9 2.6 0.00 0.14 0.00 90 1013.5
20260507214530 58 0 0.9 0.9 0.00 0.14 0.14 89 1013.5
20260507213033 58 322 0.9 1.7 0.00 0.14 0.14 88 1013.6
20260507211530 59 0 0.0 0.9 0.00 0.14 0.14 87 1013.5
20260507210030 59 0 0.0 1.7 0.00 0.14 0.14 86 1013.5
20260507204530 59 127 0.9 3.5 0.00 0.14 0.14 86 1013.5
20260507203032 59 105 1.7 4.3 0.00 0.14 0.14 85 1013.3
20260507201529 59 105 2.6 6.1 0.00 0.14 0.14 85 1013.3
20260507200033 59 143 2.6 6.1 0.00 0.14 0.14 87 1013.3
20260507194554 59 118 3.5 5.2 0.00 0.14 0.14 87 1012.9
20260507193030 60 133 2.6 5.2 0.00 0.14 0.14 87 1012.6
20260507191533 60 154 1.7 4.3 0.00 0.14 0.14 87 1012.4
20260507190029 60 147 0.9 3.5 0.00 0.14 0.14 86 1012.2
20260507184535 61 110 2.6 4.3 0.00 0.14 0.14 85 1012.0
20260507183037 61 108 3.5 6.1 0.04 0.14 0.14 84 1011.8
20260507181529 61 115 1.7 4.3 0.09 0.14 0.14 84 1011.5
20260507180034 60 129 0.9 4.3 0.09 0.14 0.14 84 1011.6
20260507174530 60 119 1.7 3.5 0.09 0.14 0.14 86 1011.8
20260507173038 61 128 0.9 3.5 0.04 0.10 0.10 86 1011.8
20260507171541 62 103 0.9 6.1 0.02 0.05 0.05 84 1011.5
20260507170028 63 108 2.6 5.2 0.04 0.05 0.05 84 1011.3
20260507164533 64 0 0.0 5.2 0.05 0.05 0.05 82 1011.2
20260507163029 65 0 0.9 3.5 0.05 0.05 0.05 80 1011.0
20260507161530 64 73 1.7 5.2 0.03 0.03 0.03 82 1010.8
20260507160033 63 262 3.5 10.4 0.00 0.00 0.00 79 1010.7
20260507154531 64 288 6.1 10.4 0.00 0.00 0.00 78 1010.7
20260507153029 65 271 6.1 10.4 0.00 0.00 0.00 77 1010.6
20260507151530 68 0 0.0 3.5 0.00 0.00 0.00 76 1010.7
20260507150027 68 118 1.7 5.2 0.00 0.00 0.00 75 1010.7